• In Kazakhstan
  • List of Countries
  • For 7 days
  • Water Temperature
  • Weather Map
  • News
  • Weather Widgets
  • user-avatar
    Login

    Hourly Weather Brecon

    Today, 28 January, Tuesday

    Time Temperature Precipitation Wind Pressure Humidity
    00:00 +2°C° 0 mm 7 mps 726 mmHg 86%
    01:00 0°C° 0.1 mm 7 mps 726 mmHg 84%
    02:00 -1°C° 0.1 mm 8 mps 727 mmHg 81%
    03:00 -1°C° 0.1 mm 8 mps 727 mmHg 79%
    04:00 -2°C° 0.1 mm 8 mps 728 mmHg 79%
    05:00 -2°C° 0.1 mm 7 mps 728 mmHg 78%
    06:00 -2°C° 0.1 mm 7 mps 729 mmHg 78%
    07:00 -2°C° 0 mm 7 mps 729 mmHg 78%
    08:00 -1°C° 0 mm 7 mps 730 mmHg 78%
    09:00 -1°C° 0 mm 7 mps 731 mmHg 78%
    10:00 0°C° 0 mm 8 mps 731 mmHg 74%
    11:00 +1°C° 0 mm 9 mps 731 mmHg 71%
    12:00 +2°C° 0 mm 10 mps 732 mmHg 68%
    13:00 +2°C° 0.1 mm 10 mps 732 mmHg 68%
    14:00 +2°C° 0.1 mm 10 mps 732 mmHg 68%
    15:00 +1°C° 0.1 mm 10 mps 732 mmHg 69%
    16:00 +1°C° 0 mm 9 mps 733 mmHg 70%
    17:00 0°C° 0 mm 9 mps 734 mmHg 72%
    18:00 -1°C° 0 mm 8 mps 735 mmHg 74%
    19:00 -1°C° 0 mm 8 mps 735 mmHg 76%
    20:00 -1°C° 0 mm 8 mps 736 mmHg 78%
    21:00 -1°C° 0 mm 8 mps 736 mmHg 79%
    22:00 -1°C° 0 mm 8 mps 737 mmHg 79%
    23:00 -1°C° 0 mm 8 mps 737 mmHg 78%

    Tomorrow, 29 January, Wednesday

    Time Temperature Precipitation Wind Pressure Humidity
    00:00 -1°C° 0 mm 7 mps 738 mmHg 77%
    01:00 -1°C° 0 mm 7 mps 738 mmHg 77%
    02:00 -1°C° 0 mm 7 mps 738 mmHg 78%
    03:00 -1°C° 0 mm 7 mps 739 mmHg 78%
    04:00 -1°C° 0 mm 7 mps 739 mmHg 79%
    05:00 -1°C° 0 mm 7 mps 740 mmHg 80%
    06:00 -1°C° 0 mm 6 mps 740 mmHg 81%
    07:00 -1°C° 0 mm 6 mps 741 mmHg 83%
    08:00 0°C° 0 mm 5 mps 741 mmHg 84%
    09:00 0°C° 0 mm 4 mps 741 mmHg 86%
    10:00 +2°C° 0 mm 5 mps 742 mmHg 82%
    11:00 +5°C° 0 mm 5 mps 742 mmHg 77%
    12:00 +5°C° 0 mm 6 mps 742 mmHg 73%
    13:00 +5°C° 0.1 mm 6 mps 742 mmHg 76%
    14:00 +5°C° 0.1 mm 7 mps 742 mmHg 79%
    15:00 +5°C° 0.1 mm 7 mps 741 mmHg 82%
    16:00 +5°C° 0 mm 7 mps 741 mmHg 84%
    17:00 +4°C° 0 mm 7 mps 741 mmHg 87%
    18:00 +4°C° 0 mm 6 mps 741 mmHg 90%
    19:00 +4°C° 0 mm 6 mps 741 mmHg 91%
    20:00 +4°C° 0 mm 6 mps 741 mmHg 93%
    21:00 +4°C° 0 mm 6 mps 741 mmHg 94%
    22:00 +5°C° 0 mm 5 mps 740 mmHg 95%
    23:00 +5°C° 0 mm 4 mps 740 mmHg 95%

    Day after tomorrow, 30 January, Thursday

    Time Temperature Precipitation Wind Pressure Humidity
    00:00 +4°C° 0 mm 4 mps 740 mmHg 96%
    01:00 +5°C° 0 mm 3 mps 739 mmHg 96%
    02:00 +5°C° 0 mm 3 mps 738 mmHg 97%
    03:00 +5°C° 0 mm 3 mps 738 mmHg 97%
    04:00 +5°C° 0 mm 3 mps 737 mmHg 97%
    05:00 +6°C° 0 mm 2 mps 737 mmHg 98%
    06:00 +6°C° 0 mm 2 mps 736 mmHg 98%
    07:00 +7°C° 0.1 mm 2 mps 736 mmHg 98%
    08:00 +8°C° 0.1 mm 1 mps 736 mmHg 98%
    09:00 +8°C° 0.1 mm 1 mps 735 mmHg 98%
    10:00 +9°C° 0 mm 1 mps 735 mmHg 96%
    11:00 +10°C° 0 mm 1 mps 735 mmHg 95%
    12:00 +11°C° 0 mm 1 mps 735 mmHg 93%
    13:00 +10°C° 0 mm 3 mps 736 mmHg 92%
    14:00 +10°C° 0 mm 4 mps 736 mmHg 91%
    15:00 +9°C° 0 mm 6 mps 736 mmHg 90%
    16:00 +8°C° 0 mm 6 mps 736 mmHg 92%
    17:00 +8°C° 0 mm 6 mps 736 mmHg 94%
    18:00 +6°C° 0 mm 7 mps 737 mmHg 95%
    19:00 +6°C° 0 mm 7 mps 737 mmHg 94%
    20:00 +8°C° 0 mm 7 mps 738 mmHg 94%
    21:00 +8°C° 0 mm 7 mps 738 mmHg 93%
    22:00 +8°C° 0 mm 6 mps 738 mmHg 94%
    23:00 +8°C° 0 mm 6 mps 739 mmHg 95%

    31 January, Friday

    Time Temperature Precipitation Wind Pressure Humidity
    00:00 +8°C° 0 mm 6 mps 739 mmHg 96%
    01:00 +8°C° 0 mm 5 mps 739 mmHg 96%
    02:00 +8°C° 0 mm 5 mps 738 mmHg 97%
    03:00 +8°C° 0 mm 4 mps 738 mmHg 97%
    04:00 +8°C° 0.1 mm 5 mps 738 mmHg 97%
    05:00 +8°C° 0.1 mm 6 mps 737 mmHg 97%
    06:00 +9°C° 0.1 mm 6 mps 737 mmHg 97%
    07:00 +9°C° 0 mm 6 mps 737 mmHg 96%
    08:00 +9°C° 0 mm 6 mps 737 mmHg 94%
    09:00 +9°C° 0 mm 6 mps 737 mmHg 93%
    10:00 +9°C° 0.5 mm 7 mps 737 mmHg 94%
    11:00 +9°C° 0.5 mm 7 mps 736 mmHg 95%
    12:00 +9°C° 0.5 mm 8 mps 736 mmHg 96%
    13:00 +9°C° 0.1 mm 7 mps 736 mmHg 95%
    14:00 +10°C° 0.1 mm 7 mps 736 mmHg 95%
    15:00 +10°C° 0.1 mm 7 mps 736 mmHg 94%
    16:00 +9°C° 0 mm 7 mps 736 mmHg 94%
    17:00 +9°C° 0 mm 8 mps 736 mmHg 94%
    18:00 +9°C° 0 mm 8 mps 736 mmHg 94%
    19:00 +9°C° 0 mm 8 mps 736 mmHg 93%
    20:00 +8°C° 0 mm 7 mps 736 mmHg 92%
    21:00 +8°C° 0 mm 7 mps 736 mmHg 92%
    22:00 +8°C° 0 mm 7 mps 736 mmHg 91%
    23:00 +8°C° 0 mm 7 mps 736 mmHg 91%

    1 February, Saturday

    Time Temperature Precipitation Wind Pressure Humidity
    00:00 +6°C° 0 mm 7 mps 736 mmHg 90%
    01:00 +6°C° 0.4 mm 7 mps 736 mmHg 91%
    02:00 +6°C° 0.4 mm 8 mps 736 mmHg 92%
    03:00 +6°C° 0.4 mm 8 mps 736 mmHg 92%
    04:00 +5°C° 0.3 mm 8 mps 736 mmHg 91%
    05:00 +5°C° 0.3 mm 8 mps 736 mmHg 89%
    06:00 +5°C° 0.3 mm 7 mps 737 mmHg 88%
    07:00 +4°C° 0 mm 7 mps 737 mmHg 87%
    08:00 +4°C° 0 mm 7 mps 738 mmHg 86%
    09:00 +4°C° 0 mm 7 mps 739 mmHg 86%
    10:00 +5°C° 0 mm 8 mps 740 mmHg 83%
    11:00 +6°C° 0 mm 9 mps 740 mmHg 80%
    12:00 +6°C° 0 mm 10 mps 741 mmHg 77%
    13:00 +6°C° 0 mm 10 mps 741 mmHg 79%
    14:00 +6°C° 0 mm 9 mps 741 mmHg 80%
    15:00 +6°C° 0 mm 9 mps 742 mmHg 81%
    16:00 +6°C° 0 mm 8 mps 741 mmHg 86%
    17:00 +5°C° 0 mm 6 mps 741 mmHg 90%
    18:00 +6°C° 0 mm 5 mps 741 mmHg 95%
    19:00 +6°C° 0 mm 5 mps 741 mmHg 94%
    20:00 +5°C° 0 mm 5 mps 741 mmHg 93%
    21:00 +5°C° 0 mm 5 mps 740 mmHg 92%
    22:00 +5°C° 0 mm 6 mps 739 mmHg 92%
    23:00 +6°C° 0 mm 7 mps 738 mmHg 93%

    2 February, Sunday

    Time Temperature Precipitation Wind Pressure Humidity
    00:00 +7°C° 0 mm 8 mps 737 mmHg 93%
    01:00 +8°C° 1.9 mm 9 mps 736 mmHg 94%
    02:00 +9°C° 1.9 mm 10 mps 734 mmHg 95%
    03:00 +11°C° 1.9 mm 11 mps 733 mmHg 96%
    04:00 +9°C° 1.9 mm 11 mps 733 mmHg 96%
    05:00 +9°C° 1.9 mm 12 mps 733 mmHg 95%
    06:00 +9°C° 1.9 mm 12 mps 733 mmHg 95%
    07:00 +9°C° 0.1 mm 11 mps 734 mmHg 93%
    08:00 +8°C° 0.1 mm 11 mps 734 mmHg 91%
    09:00 +8°C° 0.1 mm 10 mps 735 mmHg 89%
    10:00 +8°C° 0.1 mm 10 mps 736 mmHg 86%
    11:00 +8°C° 0.1 mm 11 mps 736 mmHg 83%
    12:00 +8°C° 0.1 mm 12 mps 737 mmHg 80%
    13:00 +8°C° 0.1 mm 12 mps 737 mmHg 81%
    14:00 +7°C° 0.1 mm 12 mps 737 mmHg 81%
    15:00 +7°C° 0.1 mm 12 mps 737 mmHg 82%
    16:00 +7°C° 0.1 mm 12 mps 737 mmHg 83%
    17:00 +7°C° 0.1 mm 12 mps 738 mmHg 84%
    18:00 +7°C° 0.1 mm 12 mps 738 mmHg 84%
    19:00 +5°C° 0.1 mm 12 mps 739 mmHg 83%
    20:00 +6°C° 0.1 mm 11 mps 739 mmHg 83%
    21:00 +6°C° 0.1 mm 10 mps 740 mmHg 82%
    22:00 +6°C° 0 mm 9 mps 741 mmHg 84%
    23:00 +6°C° 0 mm 9 mps 741 mmHg 86%
    Show more